[[{"header":{"parameterUnit":"m.s-1","parameterCategory":1,"la1":30.2991,"la2":30.254,"lo1":-89.0895,"lo2":-89.0444,"dy":0.0017,"dx":0.0017,"nx":28,"ny":28,"refTime":"2025-03-22T03:00:00:Z","depth":0,"parameterNumber":2,"parameterNumberName":"U-component_of_WINDS"},"data":[0,0,0,0,0,0,0,0,0,0,0,0,0,0,0,0,0,0,0,0,0,0,0,0,0,0,0,0,0,0,0,0,0,0,0,0,0,0,0,0,0,0,0,0,0,0,0,0,0,0,0,0,0,0,0,0,0,0,3.9321,3.9324,0,3.9632,3.9635,3.9639,3.9639,3.9635,3.9631,3.9627,3.9952,3.9964,3.9976,0,0,0,0,0,0,0,0,0,0,0,0,0,3.8729,3.874,3.932,3.9324,3.9328,3.9631,3.9636,3.964,3.964,3.9635,3.963,3.9625,3.9948,3.9962,3.9977,0,0,0,0,0,0,0,0,0,0,0,0,0,3.9008,3.8743,3.932,3.9364,3.9372,3.963,3.9636,3.9641,3.9641,3.9635,3.9629,3.9623,3.9943,3.9961,3.9979,4.0216,0,0,4.0036,4.0044,0,0,0,0,0,0,0,0,3.8992,3.903,3.9354,3.9362,3.937,3.959,3.9546,3.9834,3.9642,3.9539,3.9627,3.962,3.9837,3.9864,3.9936,4.0231,4.0245,4.0038,4.0049,4.0057,4.0062,0,0,0,0,0,0,0,3.8973,3.9016,3.9444,3.9359,3.9369,3.937,3.9403,3.9601,3.9718,3.9547,3.9548,3.9585,3.984,3.9918,3.9943,4.025,4.0037,4.0054,4.0065,4.0073,4.0752,4.0759,0,0,0,0,0,0,3.8944,3.9,3.9434,3.9453,3.9162,3.9386,3.9423,3.9526,3.9716,3.9739,3.959,3.9584,3.9889,3.9922,3.9955,4.0242,4.0057,4.0074,4.0085,4.0746,4.0754,4.0761,0,0,0,0,0,0,3.8931,3.8982,3.9421,3.9227,3.9283,3.9402,3.9519,3.9535,3.9613,3.9748,3.9769,3.9647,3.9885,3.9929,4.015,4.0254,4.0083,4.01,4.0737,4.0748,4.0758,4.082,0,0,0,0,0,0,3.8914,3.8978,3.9068,3.9229,3.9293,3.961,3.9525,3.9546,3.9644,3.9639,3.9807,3.983,3.9884,4.0122,4.0168,4.0276,4.0114,4.0729,4.0742,4.0754,4.0809,4.0831,4.085,0,0,0,0,0,3.8893,3.9075,3.9073,3.9125,3.9408,3.9616,3.9653,3.9711,3.9653,3.9745,3.9831,3.9824,4.0235,4.0145,4.0197,4.0312,4.0722,4.0738,4.0753,4.08,4.0827,4.085,0,0,0,0,0,0,3.8926,3.9097,3.9096,3.9336,3.9461,3.9616,3.9734,3.9738,3.9884,3.9873,3.994,3.9978,4.0198,4.0278,4.0174,4.0549,4.0472,4.0498,4.0489,4.0516,4.0536,4.0512,4.013,0,0,0,0,0,3.8961,3.9114,3.9256,3.9454,3.9516,3.9614,3.9707,3.974,3.9873,3.9927,4.003,4.0161,4.0319,4.0422,4.0576,4.0821,4.0857,4.0926,4.0946,4.0962,4.0984,4.1117,4.1149,4.0812,4.0812,4.0812,0,0,3.9036,3.9148,3.9241,3.9463,3.9564,3.9722,3.9659,3.9829,3.9947,3.9954,4.0168,4.0248,4.0398,4.0632,4.074,4.0705,4.1085,4.0982,4.0993,4.1007,4.1137,4.1168,4.1196,4.0823,4.0821,4.0819,0,0,3.9251,3.9352,3.9526,3.9628,3.978,3.9844,3.9886,4.004,4.0092,4.0308,4.0315,4.0457,4.0729,4.0835,4.0924,4.1177,4.1176,4.1226,4.1332,4.1461,4.1488,4.1512,4.16,4.1631,4.1247,4.1248,4.1248,0,3.9325,3.9561,3.9616,3.9786,3.9883,3.9893,4.007,4.0167,4.0363,4.043,4.0387,4.0727,4.0829,4.1086,4.1147,4.1221,4.127,4.1207,4.1479,4.1504,4.1527,4.1612,4.1645,4.1253,4.1252,4.1251,4.1251,0,3.9643,3.9807,3.993,4.0115,4.0226,4.0399,4.0481,4.0587,4.061,4.0678,4.0896,4.1019,4.1196,4.126,4.1285,4.1521,4.1494,4.1465,4.1388,4.1563,4.1644,4.1677,4.126,4.1258,4.1256,4.1255,0,0,3.989,4.0101,4.0145,4.0228,4.0396,4.0525,4.0698,4.0868,4.0957,4.1092,4.1238,4.1466,4.1439,4.1541,4.1578,4.1692,4.1881,4.1649,4.1653,4.1686,4.2146,4.2166,4.2203,4.1881,4.1888,4.1893,4.2133,0,4.0122,4.0427,4.048,4.0747,4.0898,4.0909,4.106,4.1179,4.1247,4.1386,4.1462,4.1622,4.1575,4.1636,4.1749,4.1834,4.1975,4.1818,4.2018,4.2025,4.1978,4.2245,4.2268,4.2488,4.2165,4.2171,4.2175,0,4.0434,4.0573,4.0854,4.0999,4.1064,4.1198,4.1358,4.149,4.1626,4.1667,4.1779,4.1803,4.1983,4.1897,4.2146,4.2038,4.2123,4.2177,4.2187,4.2207,4.2109,4.2271,4.256,4.2592,4.2225,4.2221,4.2218,0,4.0583,4.0841,4.1042,4.1113,4.1288,4.1381,4.1459,4.1588,4.1686,4.1826,4.189,4.2051,4.2138,4.2262,4.2328,4.226,4.2571,4.2492,4.261,4.2608,4.2675,4.2669,4.2979,4.2732,4.2731,4.2731,4.273,0,4.0836,4.1007,4.111,4.1234,4.1426,4.1486,4.1674,4.175,4.1865,4.2003,4.2024,4.2154,4.2233,4.2375,4.2428,4.2624,4.2665,4.2703,4.2715,4.2701,4.2695,4.2756,4.2742,4.2739,4.2738,4.2736,4.2734,0,4.1035,4.1111,4.133,4.1477,4.1517,4.1652,4.1778,4.1898,4.1964,4.214,4.2184,4.229,4.2457,4.2534,4.2743,4.2778,4.3001,4.3004,4.2954,4.2958,4.3071,4.3059,4.3431,4.3482,4.3201,4.3204,4.3206,0,4.1191,4.1323,4.1482,4.1575,4.1654,4.1804,4.1903,4.1967,4.207,4.2233,4.2333,4.2501,4.2638,4.2905,4.3001,4.3159,4.3165,4.3284,4.3189,4.3169,4.3164,4.3155,4.3167,4.3301,4.3304,4.3306,4.3308,0,4.1459,4.1489,4.1631,4.1785,4.1902,4.2028,4.2151,4.2226,4.231,4.2424,4.2594,4.27,4.291,4.3076,4.3241,4.3321,4.3329,4.3337,4.3372,4.3358,4.3323,4.3341,4.2999,4.3328,4.3326,4.3324,4.3323,4.3322,4.1641,4.1757,4.1886,4.2042,4.2141,4.2254,4.2373,4.2453,4.2595,4.277,4.2799,4.298,4.311,4.3331,4.3418,4.356,4.3532,4.3584,4.3597,4.3608,4.3613,4.3301,4.3591,4.359,4.359,4.3589,4.3589,0,4.1908,4.1991,4.2134,4.2303,4.2426,4.242,4.2555,4.2658,4.2816,4.2936,4.3069,4.3263,4.3423,4.353,4.3692,4.3786,4.3793,4.3826,4.3819,4.3837,4.363,4.3582,4.3817,4.3817,4.3817,4.3817,4.3817,4.3817,4.2062,4.2257,4.2302,4.2545,4.2628,4.2802,4.288,4.2984,4.308,4.3295,4.3427,4.3495,4.361,4.378,4.3926,4.3953,4.4011,4.4045,4.4071,4.3876,4.3852,4.3829,4.3784,4.4058,4.4058,4.4266,4.4268,4.427]},{"header":{"parameterUnit":"m.s-1","parameterCategory":1,"la1":30.2991,"la2":30.254,"lo1":-89.0895,"lo2":-89.0444,"dy":0.0017,"dx":0.0017,"nx":28,"ny":28,"refTime":"2025-03-22T03:00:00:Z","depth":0,"parameterNumber":3,"parameterNumberName":"V-component_of_WINDS"},"data":[0,0,0,0,0,0,0,0,0,0,0,0,0,0,0,0,0,0,0,0,0,0,0,0,0,0,0,0,0,0,0,0,0,0,0,0,0,0,0,0,0,0,0,0,0,0,0,0,0,0,0,0,0,0,0,0,0,0,0.4897,0.4898,0,0.4984,0.4985,0.4985,0.4972,0.497,0.4969,0.4967,0.5057,0.5061,0.5064,0,0,0,0,0,0,0,0,0,0,0,0,0,0.472,0.4723,0.4897,0.4898,0.4899,0.4983,0.4985,0.4986,0.4972,0.497,0.4968,0.4967,0.5056,0.506,0.5065,0,0,0,0,0,0,0,0,0,0,0,0,0,0.4801,0.4724,0.4897,0.4902,0.4904,0.4983,0.4985,0.4986,0.4972,0.497,0.4968,0.4966,0.5054,0.506,0.5065,0.5145,0,0,0.5083,0.5085,0,0,0,0,0,0,0,0,0.4796,0.4807,0.4901,0.4902,0.4904,0.4965,0.4955,0.5039,0.4973,0.4946,0.4967,0.4965,0.5028,0.5036,0.5057,0.5149,0.5153,0.5083,0.5087,0.5089,0.5091,0,0,0,0,0,0,0,0.4791,0.4803,0.4931,0.4902,0.4904,0.4901,0.491,0.4971,0.4999,0.4949,0.4948,0.4958,0.5029,0.5052,0.5059,0.5154,0.5083,0.5088,0.5092,0.5094,0.5315,0.5317,0,0,0,0,0,0,0.4783,0.4799,0.4929,0.4934,0.4843,0.4906,0.4916,0.4947,0.4998,0.5004,0.496,0.4957,0.5043,0.5052,0.5062,0.5158,0.5089,0.5094,0.5098,0.5312,0.5315,0.5318,0,0,0,0,0,0,0.478,0.4795,0.4925,0.4866,0.4882,0.4911,0.4947,0.495,0.4973,0.5007,0.5012,0.4978,0.5042,0.5054,0.5124,0.5161,0.5097,0.5102,0.531,0.5313,0.5317,0.5352,0,0,0,0,0,0,0.4775,0.4794,0.4825,0.4867,0.4886,0.4986,0.4949,0.4954,0.4983,0.498,0.5025,0.5031,0.5041,0.5116,0.513,0.5168,0.5107,0.5306,0.5311,0.5316,0.5348,0.5356,0.5364,0,0,0,0,0,0.4768,0.4832,0.4826,0.4842,0.4925,0.4988,0.4999,0.5009,0.4986,0.5017,0.5038,0.5029,0.5154,0.5123,0.5139,0.5179,0.5304,0.531,0.5315,0.5344,0.5355,0.5364,0,0,0,0,0,0,0.4794,0.4837,0.4832,0.4911,0.4946,0.4986,0.5026,0.502,0.5063,0.5059,0.507,0.508,0.5151,0.5172,0.5136,0.5258,0.5226,0.5235,0.5242,0.5253,0.5261,0.5255,0.5111,0,0,0,0,0,0.4808,0.4856,0.4892,0.4958,0.4975,0.4997,0.5025,0.503,0.5067,0.5082,0.5108,0.5145,0.5192,0.5223,0.5269,0.5349,0.5359,0.5385,0.5393,0.5399,0.5408,0.5451,0.5463,0.5336,0.5336,0.5336,0,0,0.484,0.4869,0.4899,0.4964,0.4991,0.504,0.501,0.5064,0.51,0.509,0.5158,0.5178,0.5219,0.5295,0.5329,0.5314,0.5444,0.5407,0.5411,0.5416,0.5458,0.547,0.5481,0.534,0.534,0.5339,0,0,0.4922,0.4949,0.5007,0.5035,0.5076,0.509,0.5104,0.5144,0.5157,0.5225,0.5218,0.5261,0.5343,0.5372,0.5398,0.5488,0.5482,0.5503,0.5546,0.5588,0.5598,0.5607,0.564,0.5651,0.551,0.551,0.5511,0,0.4956,0.503,0.5037,0.5091,0.512,0.5111,0.517,0.5196,0.5251,0.5271,0.5253,0.5354,0.5381,0.5463,0.5485,0.5506,0.5522,0.5499,0.5596,0.5605,0.5614,0.5645,0.5657,0.5513,0.5513,0.5512,0.5512,0,0.5069,0.512,0.5162,0.5214,0.5247,0.5303,0.5319,0.5351,0.5352,0.5367,0.5436,0.5467,0.5519,0.5538,0.554,0.562,0.5609,0.5593,0.5562,0.5628,0.5657,0.5669,0.5516,0.5515,0.5515,0.5514,0,0,0.5173,0.5226,0.5242,0.5265,0.5309,0.5349,0.5403,0.5453,0.5481,0.5518,0.5564,0.5632,0.5617,0.5646,0.5651,0.5688,0.5757,0.5667,0.5668,0.5683,0.5847,0.5859,0.5873,0.5752,0.5754,0.5756,0.5844,0,0.526,0.5357,0.5364,0.5452,0.5499,0.549,0.5538,0.557,0.5585,0.5627,0.5643,0.5692,0.5668,0.5685,0.5721,0.5741,0.579,0.5734,0.5795,0.5797,0.5787,0.5889,0.5902,0.5984,0.5855,0.5857,0.5858,0,0.5375,0.5415,0.5507,0.5543,0.5563,0.5606,0.5651,0.5691,0.5727,0.5735,0.5766,0.5765,0.5821,0.5785,0.5862,0.5824,0.5849,0.5862,0.5865,0.5873,0.5833,0.59,0.601,0.6023,0.5877,0.5875,0.5874,0,0.5442,0.5518,0.5583,0.5603,0.5647,0.5677,0.5697,0.573,0.5759,0.5798,0.5817,0.5862,0.5887,0.5921,0.5932,0.5905,0.6009,0.5974,0.6017,0.6017,0.6041,0.604,0.6159,0.6055,0.6055,0.6055,0.6054,0,0.5539,0.5596,0.5613,0.5654,0.5716,0.5724,0.5786,0.5803,0.5833,0.5876,0.587,0.5911,0.5922,0.5964,0.5973,0.6035,0.6046,0.6054,0.6056,0.6056,0.6055,0.6073,0.6069,0.6058,0.6057,0.6057,0.6056,0,0.5626,0.5639,0.571,0.5744,0.5754,0.5799,0.5829,0.5868,0.5881,0.5935,0.5948,0.5969,0.6019,0.6032,0.6091,0.6097,0.617,0.6166,0.6158,0.6159,0.6201,0.6197,0.6337,0.6356,0.6239,0.624,0.6241,0,0.5688,0.5731,0.577,0.5798,0.5819,0.5864,0.5893,0.5901,0.5931,0.5974,0.6007,0.6055,0.6095,0.6173,0.6194,0.6239,0.6236,0.6282,0.6243,0.6241,0.6238,0.6236,0.624,0.629,0.6291,0.6292,0.6293,0,0.5796,0.58,0.5842,0.5886,0.592,0.5956,0.5989,0.6012,0.6025,0.6059,0.6109,0.6139,0.6198,0.6246,0.6291,0.6311,0.6305,0.6305,0.6317,0.6318,0.6312,0.6316,0.618,0.6302,0.6301,0.63,0.63,0.63,0.5873,0.5911,0.5944,0.599,0.6016,0.6047,0.6084,0.6101,0.6143,0.6192,0.6194,0.6248,0.628,0.634,0.6362,0.6404,0.639,0.6408,0.6413,0.6418,0.6422,0.6304,0.6412,0.6412,0.6411,0.6411,0.6411,0,0.5982,0.6002,0.6044,0.6091,0.6127,0.6116,0.6152,0.6183,0.6231,0.6262,0.63,0.6357,0.6402,0.6425,0.6471,0.65,0.6498,0.6512,0.651,0.6515,0.6431,0.6416,0.6512,0.6512,0.6512,0.6512,0.6512,0.6512,0.6043,0.6106,0.6114,0.6189,0.6209,0.6262,0.6283,0.6311,0.6336,0.6399,0.6437,0.6451,0.6479,0.6526,0.6567,0.6572,0.659,0.6605,0.6609,0.6531,0.6521,0.6511,0.6497,0.6609,0.6609,0.669,0.669,0.6691]}]]